Stansted, United Kingdom

3:07 AM BST on April 25, 2018 (GMT +0100)
Stansted

Weather History for EGSS - December, 2013

Change the Weather History Date:

Sunday, December 1, 2013

  Actual Average Record
Temperature  
Mean Temperature 38 °F -  
Max Temperature 46 °F 42 °F 55 °F (2001)
Min Temperature 30 °F 34 °F 24 °F (2012)
Degree Days  
Heating Degree Days 27    
Moisture  
Dew Point 38 °F    
Average Humidity 90    
Maximum Humidity 93    
Minimum Humidity 81    
Precipitation  
Precipitation 0.00 in - - ()
Sea Level Pressure  
Sea Level Pressure 30.48 in    
Wind  
Wind Speed 3 mph ()    
Max Wind Speed 7 mph    
Max Gust Speed -    
Visibility 5.6 miles    
Events      
Averages and records for this station are not official NWS values.
T = Trace of Precipitation, MM = Missing Value Source: Averaged Metar Reports

Daily Weather History Graph

Daily Weather History Graph

Search for Another Location

Airport or City:

Astronomy

Dec. 01, 2013 Rise Set
Actual Time 7:44 AM GMT 3:51 PM GMT
Civil Twilight 7:04 AM GMT 4:31 PM GMT
Nautical Twilight 6:22 AM GMT 5:13 PM GMT
Astronomical Twilight 5:41 AM GMT 5:54 PM GMT
Moon 5:34 AM GMT (12/1) 2:59 PM GMT (12/1)
Length of Visible Light 9h 26m
Length of Day
8h 07m
Waning Crescent, 3% of the Moon is Illuminated
Dec 1
Waning Crescent
Dec 3
New
Dec 9
First Quarter
Dec 17
Full
Dec 25
Last Quarter

Hourly Weather History & Observations

Time (GMT) Temp. Windchill Dew Point Humidity Pressure Visibility Wind Dir Wind Speed Gust Speed Precip Events Conditions
12:20 AM 33.8 °F 29.6 °F 30.2 °F 87% 30.42 in - WSW 4.6 mph - N/A   Clear
12:50 AM 33.8 °F - 32.0 °F 93% 30.42 in - West 2.3 mph - N/A   Clear
1:20 AM 30.2 °F 25.4 °F 28.4 °F 93% 30.42 in - SW 4.6 mph - N/A   Clear
1:50 AM 32.0 °F 28.7 °F 30.2 °F 93% 30.42 in - SW 3.5 mph - N/A   Clear
2:20 AM 32.0 °F 26.4 °F 30.2 °F 93% 30.42 in 6.2 mi SW 5.8 mph - N/A   Mostly Cloudy
2:50 AM 32.0 °F 28.7 °F 30.2 °F 93% 30.42 in 6.2 mi WSW 3.5 mph - N/A   Partly Cloudy
3:20 AM 33.8 °F - 30.2 °F 87% 30.42 in 6.2 mi West 2.3 mph - N/A   Partly Cloudy
3:50 AM 32.0 °F 28.7 °F 30.2 °F 93% 30.42 in 6.2 mi West 3.5 mph - N/A   Partly Cloudy
4:20 AM 33.8 °F - 32.0 °F 93% 30.42 in - West 2.3 mph - N/A   Clear
4:50 AM 32.0 °F - 30.2 °F 93% 30.42 in - West 2.3 mph - N/A   Clear
5:20 AM 32.0 °F - 30.2 °F 93% 30.42 in 6.2 mi Calm Calm - N/A   Scattered Clouds
5:50 AM 33.8 °F - 32.0 °F 93% 30.45 in 5.6 mi SW 2.3 mph - N/A   Scattered Clouds
6:20 AM 33.8 °F - 32.0 °F 93% 30.45 in 6.2 mi West 2.3 mph - N/A   Mostly Cloudy
6:50 AM 35.6 °F - 33.8 °F 93% 30.45 in 5.0 mi West 2.3 mph - N/A   Overcast
7:20 AM 37.4 °F 34.9 °F 35.6 °F 93% 30.45 in 5.0 mi West 3.5 mph - N/A   Overcast
7:50 AM 37.4 °F 34.9 °F 35.6 °F 93% 30.45 in 5.0 mi West 3.5 mph - N/A   Mostly Cloudy
8:20 AM 39.2 °F 37.0 °F 37.4 °F 93% 30.45 in 5.6 mi West 3.5 mph - N/A   Mostly Cloudy
8:50 AM 39.2 °F - 37.4 °F 93% 30.48 in 5.6 mi WNW 2.3 mph - N/A   Mostly Cloudy
9:20 AM 41.0 °F - 39.2 °F 93% 30.48 in 6.2 mi NW 2.3 mph - N/A   Mostly Cloudy
9:50 AM 41.0 °F - 39.2 °F 93% 30.48 in 6.2 mi NW 2.3 mph - N/A   Overcast
10:20 AM 42.8 °F 41.1 °F 39.2 °F 87% 30.48 in 6.2 mi WNW 3.5 mph - N/A   Overcast
10:50 AM 42.8 °F 41.1 °F 41.0 °F 93% 30.48 in 6.2 mi WNW 3.5 mph - N/A   Mostly Cloudy
11:20 AM 46.4 °F 45.2 °F 41.0 °F 81% 30.48 in 6.2 mi WNW 3.5 mph - N/A   Mostly Cloudy
11:50 AM 44.6 °F 43.1 °F 41.0 °F 87% 30.48 in 6.2 mi NW 3.5 mph - N/A   Overcast
12:20 PM 46.4 °F 44.3 °F 41.0 °F 81% 30.48 in 6.2 mi NNW 4.6 mph - N/A   Overcast
12:50 PM 46.4 °F 44.3 °F 42.8 °F 87% 30.48 in 6.2 mi NNW 4.6 mph - N/A   Mostly Cloudy
1:20 PM 46.4 °F 43.5 °F 41.0 °F 81% 30.48 in 6.2 mi North 5.8 mph - N/A   Mostly Cloudy
1:50 PM 46.4 °F 43.5 °F 41.0 °F 81% 30.48 in 6.2 mi North 5.8 mph - N/A   Scattered Clouds
2:20 PM 46.4 °F 43.5 °F 41.0 °F 81% 30.48 in 6.2 mi North 5.8 mph - N/A   Partly Cloudy
2:50 PM 46.4 °F 44.3 °F 41.0 °F 81% 30.48 in 6.2 mi NNE 4.6 mph - N/A   Partly Cloudy
3:20 PM 44.6 °F 43.1 °F 41.0 °F 87% 30.51 in 6.2 mi NNE 3.5 mph - N/A   Scattered Clouds
3:50 PM 44.6 °F 43.1 °F 41.0 °F 87% 30.51 in 6.2 mi NNW 3.5 mph - N/A   Mostly Cloudy
4:20 PM 44.6 °F - 41.0 °F 87% 30.51 in 6.2 mi Variable 2.3 mph - N/A   Mostly Cloudy
4:50 PM 42.8 °F 41.1 °F 39.2 °F 87% 30.51 in 6.2 mi NW 3.5 mph - N/A   Scattered Clouds
5:20 PM 42.8 °F 41.1 °F 39.2 °F 87% 30.51 in 6.2 mi NW 3.5 mph - N/A   Mostly Cloudy
5:50 PM 42.8 °F 40.1 °F 41.0 °F 93% 30.51 in 5.0 mi NNW 4.6 mph - N/A   Overcast
6:20 PM 42.8 °F 39.3 °F 41.0 °F 93% 30.54 in 6.2 mi North 5.8 mph - N/A   Overcast
6:50 PM 42.8 °F 38.6 °F 41.0 °F 93% 30.54 in 6.2 mi North 6.9 mph - N/A   Overcast
7:20 PM 42.8 °F 39.3 °F 41.0 °F 93% 30.54 in 5.6 mi North 5.8 mph - N/A   Overcast
7:50 PM 42.8 °F 39.3 °F 41.0 °F 93% 30.54 in 5.6 mi North 5.8 mph - N/A   Overcast
8:20 PM 42.8 °F 40.1 °F 41.0 °F 93% 30.54 in 5.0 mi North 4.6 mph - N/A   Overcast
8:50 PM 42.8 °F 40.1 °F 41.0 °F 93% 30.54 in 5.0 mi North 4.6 mph - N/A   Overcast
9:20 PM 42.8 °F 40.1 °F 41.0 °F 93% 30.54 in 5.0 mi North 4.6 mph - N/A   Overcast
9:50 PM 42.8 °F 41.1 °F 41.0 °F 93% 30.54 in 3.7 mi North 3.5 mph - N/A   Overcast
10:20 PM 42.8 °F - 41.0 °F 93% 30.54 in 3.7 mi North 2.3 mph - N/A   Overcast
10:50 PM 42.8 °F - 41.0 °F 93% 30.57 in 3.7 mi Variable 2.3 mph - N/A   Overcast
11:20 PM 42.8 °F 41.1 °F 41.0 °F 93% 30.57 in 3.7 mi North 3.5 mph - N/A   Overcast
11:50 PM 42.8 °F 40.1 °F 41.0 °F 93% 30.57 in 3.1 mi North 4.6 mph - N/A   Haze